CEB413 RPLL-RPVE

Flight info

Callsign CEB413
Flight time 0h 37m
Altitude 27000
Route VERDE2R VERDE W24 TAPER TAPER7A
Aircraft A20N/M-SDE2E3FGHIRWXY/LB1

Departure

Time 2026-05-07 14:40
Airport Ninoy Aquino International Airport (RPLL)

Arrival

Time 2026-05-07 15:18
Airport Godofredo P. Ramos Airport (RPVE)
Time Latitude Longitude Altitude Speed Heading
2026-05-07 13:56 14.52052 121.01143 82 ft 0 kts 46°
2026-05-07 14:21 14.52045 121.01135 82 ft 2 kts 45°
2026-05-07 14:21 14.52034 121.01125 82 ft 2 kts 46°
2026-05-07 14:22 14.52024 121.01114 82 ft 2 kts 46°
2026-05-07 14:22 14.52014 121.01103 82 ft 2 kts 46°
2026-05-07 14:22 14.52004 121.01093 82 ft 2 kts 46°
2026-05-07 14:22 14.51993 121.01081 82 ft 2 kts 45°
2026-05-07 14:23 14.51985 121.01067 82 ft 2 kts 77°
2026-05-07 14:23 14.51984 121.01052 82 ft 2 kts 101°
2026-05-07 14:23 14.51990 121.01038 82 ft 2 kts 125°
2026-05-07 14:23 14.51994 121.01032 82 ft 1 kts 140°
2026-05-07 14:24 14.51998 121.01029 82 ft 0 kts 135°
2026-05-07 14:28 14.51987 121.01040 82 ft 5 kts 135°
2026-05-07 14:28 14.51947 121.01081 82 ft 10 kts 134°
2026-05-07 14:28 14.51889 121.01142 82 ft 12 kts 135°
2026-05-07 14:28 14.51825 121.01207 82 ft 12 kts 134°
2026-05-07 14:29 14.51761 121.01274 82 ft 13 kts 134°
2026-05-07 14:29 14.51695 121.01344 82 ft 13 kts 133°
2026-05-07 14:29 14.51627 121.01414 82 ft 14 kts 140°
2026-05-07 14:29 14.51553 121.01484 82 ft 14 kts 134°
2026-05-07 14:30 14.51486 121.01562 82 ft 14 kts 134°
2026-05-07 14:30 14.51414 121.01636 82 ft 14 kts 136°
2026-05-07 14:30 14.51340 121.01711 82 ft 14 kts 135°
2026-05-07 14:30 14.51266 121.01787 82 ft 15 kts 135°
2026-05-07 14:31 14.51192 121.01862 82 ft 15 kts 134°
2026-05-07 14:31 14.51151 121.01905 82 ft 3 kts 135°
2026-05-07 14:31 14.51145 121.01911 82 ft 0 kts 135°
2026-05-07 14:31 14.51141 121.01915 82 ft 1 kts 135°
2026-05-07 14:32 14.51128 121.01929 82 ft 4 kts 134°
2026-05-07 14:32 14.51094 121.01965 82 ft 7 kts 135°
2026-05-07 14:32 14.51045 121.01974 82 ft 8 kts 213°
2026-05-07 14:32 14.51005 121.01922 82 ft 9 kts 240°
2026-05-07 14:33 14.50964 121.01849 82 ft 13 kts 240°
2026-05-07 14:33 14.50915 121.01761 82 ft 14 kts 240°
2026-05-07 14:33 14.50863 121.01668 82 ft 15 kts 240°
2026-05-07 14:33 14.50809 121.01573 82 ft 15 kts 239°
2026-05-07 14:34 14.50756 121.01474 82 ft 16 kts 239°
2026-05-07 14:34 14.50699 121.01373 82 ft 16 kts 240°
2026-05-07 14:34 14.50643 121.01269 82 ft 16 kts 240°
2026-05-07 14:34 14.50584 121.01165 82 ft 17 kts 239°
2026-05-07 14:35 14.50524 121.01058 82 ft 17 kts 240°
2026-05-07 14:35 14.50464 121.00949 82 ft 17 kts 240°
2026-05-07 14:35 14.50402 121.00839 82 ft 17 kts 240°
2026-05-07 14:35 14.50343 121.00724 82 ft 18 kts 241°
2026-05-07 14:36 14.50282 121.00616 82 ft 17 kts 237°
2026-05-07 14:36 14.50221 121.00510 82 ft 17 kts 241°
2026-05-07 14:36 14.50160 121.00402 82 ft 17 kts 239°
2026-05-07 14:36 14.50098 121.00292 82 ft 17 kts 239°
2026-05-07 14:37 14.50037 121.00180 82 ft 17 kts 240°
2026-05-07 14:37 14.49923 120.99984 82 ft 10 kts 233°
2026-05-07 14:37 14.49876 120.99967 82 ft 0 kts 159°
2026-05-07 14:38 14.49870 120.99970 82 ft 2 kts 158°
2026-05-07 14:38 14.49837 120.99988 82 ft 7 kts 148°
2026-05-07 14:39 14.49807 121.00046 82 ft 11 kts 78°
2026-05-07 14:39 14.49849 121.00130 82 ft 19 kts 60°
2026-05-07 14:39 14.50036 121.00480 82 ft 94 kts 60°
2026-05-07 14:39 14.50490 121.01276 86 ft 159 kts 60°
2026-05-07 14:40 14.51047 121.02291 668 ft 164 kts 63°
2026-05-07 14:40 14.51591 121.03291 1478 ft 162 kts 61°
2026-05-07 14:40 14.52136 121.04274 2219 ft 162 kts 60°
2026-05-07 14:40 14.52730 121.05336 2704 ft 179 kts 61°
2026-05-07 14:41 14.53376 121.06493 3191 ft 196 kts 61°
2026-05-07 14:41 14.54074 121.07746 3725 ft 209 kts 60°
2026-05-07 14:41 14.54824 121.09094 4128 ft 230 kts 60°
2026-05-07 14:41 14.55660 121.10593 4619 ft 250 kts 61°
2026-05-07 14:42 14.56267 121.12312 5276 ft 264 kts 84°
2026-05-07 14:42 14.56022 121.14172 6116 ft 271 kts 109°
2026-05-07 14:42 14.54985 121.15789 6977 ft 277 kts 131°
2026-05-07 14:42 14.53619 121.17177 7857 ft 280 kts 132°
2026-05-07 14:43 14.52234 121.18584 8707 ft 283 kts 132°
2026-05-07 14:43 14.50830 121.20024 9547 ft 285 kts 132°
2026-05-07 14:43 14.49439 121.21463 10310 ft 289 kts 133°
2026-05-07 14:43 14.47813 121.22749 10860 ft 305 kts 152°
2026-05-07 14:44 14.45716 121.23289 11533 ft 316 kts 176°
2026-05-07 14:44 14.43531 121.22948 12187 ft 327 kts 198°
2026-05-07 14:44 14.41558 121.21687 12526 ft 347 kts 223°
2026-05-07 14:44 14.39889 121.19776 12856 ft 364 kts 227°
2026-05-07 14:45 14.38219 121.17799 13254 ft 374 kts 227°
2026-05-07 14:45 14.36475 121.15758 13897 ft 378 kts 227°
2026-05-07 14:45 14.34734 121.13747 14514 ft 381 kts 227°
2026-05-07 14:45 14.32945 121.11696 15125 ft 385 kts 227°
2026-05-07 14:46 14.31144 121.09636 15690 ft 389 kts 227°
2026-05-07 14:46 14.29292 121.07596 16230 ft 392 kts 224°
2026-05-07 14:46 14.27268 121.05701 16782 ft 395 kts 219°
2026-05-07 14:46 14.25079 121.03993 17300 ft 399 kts 214°
2026-05-07 14:47 14.22777 121.02358 17811 ft 402 kts 213°
2026-05-07 14:47 14.20464 121.00742 18308 ft 406 kts 213°
2026-05-07 14:47 14.18118 120.99104 18828 ft 409 kts 213°
2026-05-07 14:47 14.15740 120.97437 19346 ft 411 kts 213°
2026-05-07 14:48 14.13393 120.95786 19852 ft 414 kts 214°
2026-05-07 14:48 14.11004 120.94104 20365 ft 416 kts 214°
2026-05-07 14:48 14.08606 120.92414 20868 ft 419 kts 214°
2026-05-07 14:48 14.06118 120.90845 21337 ft 421 kts 203°
2026-05-07 14:49 14.03294 120.90076 21834 ft 421 kts 184°
2026-05-07 14:49 14.00366 120.90252 22330 ft 421 kts 167°
2026-05-07 14:49 13.97530 120.90973 22825 ft 423 kts 164°
2026-05-07 14:49 13.94670 120.91741 23260 ft 427 kts 165°
2026-05-07 14:50 13.91771 120.92514 23711 ft 431 kts 165°
2026-05-07 14:50 13.88865 120.93278 24166 ft 434 kts 165°
2026-05-07 14:50 13.85911 120.94042 24611 ft 437 kts 165°
2026-05-07 14:50 13.82953 120.94801 25040 ft 440 kts 165°
2026-05-07 14:51 13.79969 120.95566 25471 ft 443 kts 165°
2026-05-07 14:51 13.76954 120.96339 25897 ft 446 kts 165°
2026-05-07 14:51 13.73939 120.97112 26303 ft 449 kts 165°
2026-05-07 14:51 13.70904 120.97890 26699 ft 452 kts 166°
2026-05-07 14:52 13.67831 120.98679 26876 ft 454 kts 166°
2026-05-07 14:52 13.64732 120.99474 26874 ft 453 kts 166°
2026-05-07 14:52 13.61685 121.00255 26881 ft 453 kts 166°
2026-05-07 14:52 13.58638 121.01035 26884 ft 453 kts 166°
2026-05-07 14:53 13.55563 121.01821 26885 ft 453 kts 166°
2026-05-07 14:53 13.52534 121.02730 26886 ft 453 kts 160°
2026-05-07 14:53 13.49601 121.03984 26890 ft 453 kts 153°
2026-05-07 14:53 13.46853 121.05562 26898 ft 452 kts 147°
2026-05-07 14:54 13.44257 121.07349 26914 ft 452 kts 144°
2026-05-07 14:54 13.41676 121.09201 26927 ft 453 kts 144°
2026-05-07 14:54 13.39084 121.11061 26940 ft 453 kts 144°
2026-05-07 14:54 13.36494 121.12903 26949 ft 452 kts 145°
2026-05-07 14:55 13.33897 121.14728 26958 ft 452 kts 145°
2026-05-07 14:55 13.31309 121.16536 26964 ft 452 kts 145°
2026-05-07 14:55 13.28705 121.18355 26968 ft 452 kts 145°
2026-05-07 14:55 13.26084 121.20187 26961 ft 452 kts 145°
2026-05-07 14:56 13.23493 121.21999 26952 ft 452 kts 145°
2026-05-07 14:56 13.20910 121.23808 26936 ft 452 kts 145°
2026-05-07 14:56 13.18303 121.25635 26925 ft 452 kts 145°
2026-05-07 14:56 13.15686 121.27467 26923 ft 452 kts 145°
2026-05-07 14:57 13.13108 121.29274 26925 ft 452 kts 145°
2026-05-07 14:57 13.10510 121.31094 26928 ft 452 kts 145°
2026-05-07 14:57 13.07928 121.32903 26837 ft 448 kts 145°
2026-05-07 14:57 13.05335 121.34718 26153 ft 449 kts 145°
2026-05-07 14:58 13.02770 121.36512 25148 ft 454 kts 144°
2026-05-07 14:58 13.00156 121.38341 24554 ft 448 kts 144°
2026-05-07 14:58 12.97617 121.40118 24017 ft 442 kts 144°
2026-05-07 14:58 12.95082 121.41890 23493 ft 436 kts 144°
2026-05-07 14:59 12.92590 121.43632 22977 ft 430 kts 144°
2026-05-07 14:59 12.90138 121.45346 22464 ft 424 kts 144°
2026-05-07 14:59 12.87708 121.47038 21962 ft 419 kts 144°
2026-05-07 14:59 12.85332 121.48689 21457 ft 415 kts 144°
2026-05-07 15:00 12.82952 121.50344 20941 ft 411 kts 144°
2026-05-07 15:00 12.80589 121.51991 20423 ft 407 kts 143°
2026-05-07 15:00 12.78261 121.53615 19910 ft 403 kts 143°
2026-05-07 15:00 12.75968 121.55216 19409 ft 399 kts 143°
2026-05-07 15:01 12.73659 121.56829 18899 ft 396 kts 143°
2026-05-07 15:01 12.71409 121.58400 18403 ft 392 kts 143°
2026-05-07 15:01 12.69172 121.59963 17908 ft 388 kts 143°
2026-05-07 15:01 12.66959 121.61507 17415 ft 385 kts 143°
2026-05-07 15:02 12.64737 121.63058 16924 ft 381 kts 143°
2026-05-07 15:02 12.62569 121.64573 16438 ft 378 kts 143°
2026-05-07 15:02 12.60383 121.66104 15944 ft 375 kts 143°
2026-05-07 15:02 12.58246 121.67608 15456 ft 373 kts 143°
2026-05-07 15:03 12.56123 121.69099 14972 ft 370 kts 143°
2026-05-07 15:03 12.54015 121.70576 14487 ft 367 kts 143°
2026-05-07 15:03 12.51908 121.72050 14007 ft 365 kts 143°
2026-05-07 15:03 12.49831 121.73499 13528 ft 362 kts 143°
2026-05-07 15:04 12.47736 121.74961 13041 ft 359 kts 143°
2026-05-07 15:04 12.45692 121.76386 12565 ft 357 kts 143°
2026-05-07 15:04 12.43630 121.77822 12084 ft 354 kts 143°
2026-05-07 15:04 12.41617 121.79223 11614 ft 351 kts 143°
2026-05-07 15:05 12.39584 121.80637 11136 ft 349 kts 143°
2026-05-07 15:05 12.37519 121.81913 10641 ft 349 kts 155°
2026-05-07 15:05 12.35154 121.82367 10347 ft 346 kts 178°
2026-05-07 15:05 12.32810 121.82005 10221 ft 335 kts 189°
2026-05-07 15:06 12.30556 121.81497 10098 ft 321 kts 189°
2026-05-07 15:06 12.28429 121.81014 10001 ft 307 kts 189°
2026-05-07 15:06 12.26361 121.80549 9761 ft 301 kts 189°
2026-05-07 15:06 12.24307 121.80096 9411 ft 299 kts 188°
2026-05-07 15:07 12.22276 121.79653 9073 ft 297 kts 188°
2026-05-07 15:07 12.20280 121.79220 8745 ft 294 kts 188°
2026-05-07 15:07 12.18285 121.78788 8418 ft 292 kts 188°
2026-05-07 15:07 12.16279 121.78353 8085 ft 290 kts 188°
2026-05-07 15:08 12.14322 121.77930 7761 ft 288 kts 188°
2026-05-07 15:08 12.12355 121.77505 7438 ft 287 kts 188°
2026-05-07 15:08 12.10407 121.77084 7116 ft 285 kts 188°
2026-05-07 15:08 12.08468 121.76666 6800 ft 283 kts 188°
2026-05-07 15:09 12.06529 121.76247 6489 ft 282 kts 188°
2026-05-07 15:09 12.04599 121.75831 6177 ft 280 kts 187°
2026-05-07 15:09 12.02707 121.75423 5850 ft 280 kts 187°
2026-05-07 15:09 12.00782 121.75008 5532 ft 278 kts 187°
2026-05-07 15:10 11.98890 121.74599 5227 ft 277 kts 187°
2026-05-07 15:10 11.98539 121.74524 5170 ft 276 kts 187°
2026-05-07 15:10 11.98143 121.74439 5107 ft 276 kts 188°
2026-05-07 15:10 11.96262 121.74038 4809 ft 274 kts 188°
2026-05-07 15:11 11.95235 121.73815 4642 ft 273 kts 188°
2026-05-07 15:11 11.93887 121.73536 4609 ft 272 kts 192°
2026-05-07 15:11 11.92961 121.73338 4416 ft 272 kts 192°
2026-05-07 15:11 11.91183 121.73152 4043 ft 270 kts 174°
2026-05-07 15:12 11.89427 121.73705 3895 ft 258 kts 154°
2026-05-07 15:12 11.87871 121.74519 3882 ft 242 kts 152°
2026-05-07 15:12 11.86416 121.75296 3873 ft 227 kts 152°
2026-05-07 15:12 11.85051 121.76022 3860 ft 217 kts 150°
2026-05-07 15:13 11.83959 121.77045 3589 ft 215 kts 114°
2026-05-07 15:13 11.83809 121.78491 3383 ft 208 kts 73°
2026-05-07 15:13 11.84437 121.79795 3187 ft 203 kts 59°
2026-05-07 15:13 11.85174 121.81023 2954 ft 201 kts 59°
2026-05-07 15:14 11.85863 121.82241 2861 ft 188 kts 61°
2026-05-07 15:14 11.86464 121.83401 2579 ft 186 kts 63°
2026-05-07 15:14 11.87043 121.84563 2320 ft 182 kts 63°
2026-05-07 15:14 11.87612 121.85710 2080 ft 177 kts 63°
2026-05-07 15:15 11.88157 121.86805 1848 ft 170 kts 63°
2026-05-07 15:15 11.88677 121.87846 1626 ft 157 kts 63°
2026-05-07 15:15 11.89134 121.88763 1439 ft 147 kts 63°
2026-05-07 15:15 11.89581 121.89657 1262 ft 138 kts 63°
2026-05-07 15:16 11.90009 121.90514 1089 ft 135 kts 63°
2026-05-07 15:16 11.90432 121.91361 905 ft 135 kts 63°
2026-05-07 15:16 11.90859 121.92217 728 ft 134 kts 63°
2026-05-07 15:16 11.91285 121.93071 552 ft 134 kts 63°
2026-05-07 15:17 11.91704 121.93912 356 ft 134 kts 63°
2026-05-07 15:17 11.92131 121.94759 138 ft 133 kts 62°
2026-05-07 15:17 11.92545 121.95575 13 ft 113 kts 63°
2026-05-07 15:17 11.92786 121.96061 13 ft 56 kts 63°
2026-05-07 15:18 11.92891 121.96271 13 ft 19 kts 62°
2026-05-07 15:18 11.92943 121.96381 13 ft 11 kts 60°
2026-05-07 15:18 11.92948 121.96458 13 ft 12 kts 130°
2026-05-07 15:18 11.92885 121.96499 13 ft 6 kts 152°
2026-05-07 15:19 11.92838 121.96523 13 ft 8 kts 154°
2026-05-07 15:19 11.92781 121.96518 13 ft 9 kts 220°
2026-05-07 15:19 11.92743 121.96455 13 ft 10 kts 242°
2026-05-07 15:19 11.92720 121.96411 13 ft 3 kts 239°
2026-05-07 15:20 11.92699 121.96397 13 ft 4 kts 164°
2026-05-07 15:20 11.92674 121.96410 13 ft 2 kts 150°
2026-05-07 15:20 11.92669 121.96413 13 ft 0 kts 151°